Time,TemperatureF,DewpointF,PressureIn,WindDirection,WindDirectionDegrees,WindSpeedMPH,WindSpeedGustMPH,Humidity,HourlyPrecipIn,Conditions,Clouds,dailyrainin,SoftwareType,DateUTC
2013-03-02 00:00:00,28.8,21.3,29.70,West,270,3.4,7.8,73,0.00,,,0.00,WUHU216HW,2013-03-02 05:00:00,
2013-03-02 00:01:00,28.8,21.3,29.70,West,270,2.2,7.8,73,0.00,,,0.00,WUHU216HW,2013-03-02 05:01:00,
2013-03-02 00:06:00,28.6,21.1,29.70,WNW,293,3.6,7.8,73,0.00,,,0.00,WUHU216HW,2013-03-02 05:06:00,
2013-03-02 00:11:00,28.6,21.1,29.70,WNW,293,1.8,6.7,73,0.00,,,0.00,WUHU216HW,2013-03-02 05:11:00,
2013-03-02 00:16:00,28.6,21.1,29.70,NW,315,2.0,5.6,73,0.00,,,0.00,WUHU216HW,2013-03-02 05:16:00,
2013-03-02 00:21:00,28.6,21.1,29.70,NW,315,1.8,5.4,73,0.00,,,0.00,WUHU216HW,2013-03-02 05:21:00,
2013-03-02 00:27:00,28.6,21.1,29.70,WNW,293,3.6,5.4,73,0.00,,,0.00,WUHU216HW,2013-03-02 05:27:00,
2013-03-02 00:32:00,28.6,21.1,29.70,WNW,293,4.0,7.6,73,0.00,,,0.00,WUHU216HW,2013-03-02 05:32:00,
2013-03-02 00:37:00,28.6,21.1,29.70,West,270,6.0,7.6,73,0.00,,,0.00,WUHU216HW,2013-03-02 05:37:00,
2013-03-02 00:42:00,28.4,20.9,29.70,WNW,293,4.7,6.9,73,0.00,,,0.00,WUHU216HW,2013-03-02 05:42:00,
2013-03-02 00:47:00,28.4,20.9,29.70,WNW,293,5.1,9.8,73,0.00,,,0.00,WUHU216HW,2013-03-02 05:47:00,
2013-03-02 00:52:00,28.2,20.7,29.70,NW,315,3.4,9.8,73,0.00,,,0.00,WUHU216HW,2013-03-02 05:52:00,
2013-03-02 00:57:00,28.2,20.7,29.70,WNW,293,2.9,6.9,73,0.00,,,0.00,WUHU216HW,2013-03-02 05:57:00,
2013-03-02 01:02:00,28.2,21.0,29.70,WNW,293,4.5,9.2,74,0.00,,,0.00,WUHU216HW,2013-03-02 06:02:00,
2013-03-02 01:07:00,28.1,20.9,29.70,WNW,293,3.1,9.2,74,0.00,,,0.00,WUHU216HW,2013-03-02 06:07:00,
2013-03-02 01:12:00,28.1,20.9,29.70,WNW,293,4.3,6.3,74,0.00,,,0.00,WUHU216HW,2013-03-02 06:12:00,
2013-03-02 01:18:00,27.9,20.7,29.70,West,270,4.7,6.3,74,0.00,,,0.00,WUHU216HW,2013-03-02 06:18:00,
2013-03-02 01:23:00,27.9,20.7,29.70,West,270,2.0,4.7,74,0.00,,,0.00,WUHU216HW,2013-03-02 06:23:00,
2013-03-02 01:28:00,27.9,20.4,29.70,NW,315,3.4,5.4,73,0.00,,,0.00,WUHU216HW,2013-03-02 06:28:00,
2013-03-02 01:33:00,27.9,20.4,29.70,WNW,293,3.4,7.2,73,0.00,,,0.00,WUHU216HW,2013-03-02 06:33:00,
2013-03-02 01:38:00,27.9,20.4,29.69,SW,225,4.0,7.2,73,0.00,,,0.00,WUHU216HW,2013-03-02 06:38:00,
2013-03-02 01:43:00,27.7,20.2,29.69,WNW,293,8.3,8.3,73,0.00,,,0.00,WUHU216HW,2013-03-02 06:43:00,
2013-03-02 01:48:00,27.7,20.2,29.69,West,270,7.8,8.3,73,0.00,,,0.00,WUHU216HW,2013-03-02 06:48:00,
2013-03-02 01:53:00,27.7,20.2,29.69,West,270,3.4,7.8,73,0.00,,,0.00,WUHU216HW,2013-03-02 06:53:00,
2013-03-02 01:59:00,27.5,20.0,29.70,WSW,248,6.3,6.5,73,0.00,,,0.00,WUHU216HW,2013-03-02 06:59:00,
2013-03-02 02:04:00,27.5,20.0,29.70,NNW,338,6.0,6.3,73,0.00,,,0.00,WUHU216HW,2013-03-02 07:04:00,
2013-03-02 02:09:00,27.5,20.0,29.70,West,270,2.2,6.0,73,0.00,,,0.00,WUHU216HW,2013-03-02 07:09:00,
2013-03-02 02:14:00,27.5,20.0,29.70,WNW,293,2.0,6.0,73,0.00,,,0.00,WUHU216HW,2013-03-02 07:14:00,
2013-03-02 02:19:00,27.5,20.0,29.69,West,270,0.4,5.6,73,0.00,,,0.00,WUHU216HW,2013-03-02 07:19:00,
2013-03-02 02:24:00,27.5,20.0,29.69,NW,315,2.5,6.7,73,0.00,,,0.00,WUHU216HW,2013-03-02 07:24:00,
2013-03-02 02:29:00,27.5,20.0,29.69,NW,315,3.6,6.7,73,0.00,,,0.00,WUHU216HW,2013-03-02 07:29:00,
2013-03-02 02:34:00,27.3,19.8,29.69,WNW,293,2.5,4.0,73,0.00,,,0.00,WUHU216HW,2013-03-02 07:34:00,
2013-03-02 02:39:00,27.3,19.8,29.69,WNW,293,1.1,4.3,73,0.00,,,0.00,WUHU216HW,2013-03-02 07:39:00,
2013-03-02 02:44:00,27.5,20.0,29.69,West,270,0.9,5.6,73,0.00,,,0.00,WUHU216HW,2013-03-02 07:44:00,
2013-03-02 02:49:00,27.3,19.8,29.69,WNW,293,1.3,5.6,73,0.00,,,0.00,WUHU216HW,2013-03-02 07:49:00,
2013-03-02 02:54:00,27.3,19.8,29.69,NW,315,2.7,4.7,73,0.00,,,0.00,WUHU216HW,2013-03-02 07:54:00,
2013-03-02 02:59:00,27.3,19.8,29.69,West,270,1.3,4.7,73,0.00,,,0.00,WUHU216HW,2013-03-02 07:59:00,
2013-03-02 03:04:00,27.3,19.8,29.69,WNW,293,0.9,3.1,73,0.00,,,0.00,WUHU216HW,2013-03-02 08:04:00,
2013-03-02 03:10:00,27.3,19.8,29.69,West,270,3.4,3.4,73,0.00,,,0.00,WUHU216HW,2013-03-02 08:10:00,
2013-03-02 03:15:00,27.3,19.8,29.69,WNW,293,2.2,6.3,73,0.00,,,0.00,WUHU216HW,2013-03-02 08:15:00,
2013-03-02 03:20:00,27.3,19.8,29.69,WNW,293,2.5,6.3,73,0.00,,,0.00,WUHU216HW,2013-03-02 08:20:00,
2013-03-02 03:25:00,27.3,19.8,29.69,NW,315,2.0,4.7,73,0.00,,,0.00,WUHU216HW,2013-03-02 08:25:00,
2013-03-02 03:30:00,27.3,19.8,29.69,NW,315,1.8,3.1,73,0.00,,,0.00,WUHU216HW,2013-03-02 08:30:00,
2013-03-02 03:35:00,27.3,19.8,29.69,WNW,293,2.0,5.4,73,0.00,,,0.00,WUHU216HW,2013-03-02 08:35:00,
2013-03-02 03:40:00,27.2,19.7,29.69,WSW,248,3.8,5.4,73,0.00,,,0.00,WUHU216HW,2013-03-02 08:40:00,
2013-03-02 03:45:00,27.2,19.7,29.70,WNW,293,2.2,7.4,73,0.00,,,0.00,WUHU216HW,2013-03-02 08:45:00,
2013-03-02 03:50:00,27.2,19.7,29.69,NW,315,4.3,7.4,73,0.00,,,0.00,WUHU216HW,2013-03-02 08:50:00,
2013-03-02 03:55:00,27.2,19.7,29.69,SW,225,3.1,4.7,73,0.00,,,0.00,WUHU216HW,2013-03-02 08:55:00,
2013-03-02 04:00:00,27.2,19.7,29.69,NW,315,4.0,4.3,73,0.00,,,0.00,WUHU216HW,2013-03-02 09:00:00,
2013-03-02 04:05:00,27.2,19.7,29.69,WNW,293,1.6,7.4,73,0.00,,,0.00,WUHU216HW,2013-03-02 09:05:00,
2013-03-02 04:10:00,27.2,19.7,29.69,NW,315,4.3,7.4,73,0.00,,,0.00,WUHU216HW,2013-03-02 09:10:00,
2013-03-02 04:15:00,27.0,19.5,29.69,West,270,0.9,5.1,73,0.00,,,0.00,WUHU216HW,2013-03-02 09:15:00,
2013-03-02 04:20:00,27.0,19.5,29.69,NW,315,2.5,5.1,73,0.00,,,0.00,WUHU216HW,2013-03-02 09:20:00,
2013-03-02 04:25:00,27.0,19.5,29.69,WSW,248,0.9,4.7,73,0.00,,,0.00,WUHU216HW,2013-03-02 09:25:00,
2013-03-02 04:30:00,26.8,19.3,29.69,WNW,293,1.8,4.7,73,0.00,,,0.00,WUHU216HW,2013-03-02 09:30:00,
2013-03-02 04:35:00,26.8,19.3,29.69,WNW,293,3.4,5.6,73,0.00,,,0.00,WUHU216HW,2013-03-02 09:35:00,
2013-03-02 04:40:00,26.8,19.3,29.69,SW,225,1.8,5.6,73,0.00,,,0.00,WUHU216HW,2013-03-02 09:40:00,
2013-03-02 04:45:00,26.6,19.2,29.69,West,270,4.9,5.6,73,0.00,,,0.00,WUHU216HW,2013-03-02 09:45:00,
2013-03-02 04:50:00,26.4,19.0,29.69,West,270,2.0,5.6,73,0.00,,,0.00,WUHU216HW,2013-03-02 09:50:00,
2013-03-02 04:55:00,26.4,19.0,29.69,WNW,293,2.9,5.4,73,0.00,,,0.00,WUHU216HW,2013-03-02 09:55:00,
2013-03-02 05:00:00,26.3,18.9,29.69,NNW,338,2.5,4.3,73,0.00,,,0.00,WUHU216HW,2013-03-02 10:00:00,
2013-03-02 05:06:00,26.1,18.7,29.69,West,270,1.6,4.9,73,0.00,,,0.00,WUHU216HW,2013-03-02 10:06:00,
2013-03-02 05:11:00,26.1,18.7,29.69,NW,315,1.8,4.9,73,0.00,,,0.00,WUHU216HW,2013-03-02 10:11:00,
2013-03-02 05:16:00,26.1,18.7,29.69,WNW,293,2.5,3.6,73,0.00,,,0.00,WUHU216HW,2013-03-02 10:16:00,
2013-03-02 05:21:00,26.1,18.7,29.69,WNW,293,2.7,3.4,73,0.00,,,0.00,WUHU216HW,2013-03-02 10:21:00,
2013-03-02 05:26:00,26.1,18.7,29.69,WNW,293,2.9,4.3,73,0.00,,,0.00,WUHU216HW,2013-03-02 10:26:00,
2013-03-02 05:31:00,25.9,18.5,29.68,NW,315,3.6,4.9,73,0.00,,,0.00,WUHU216HW,2013-03-02 10:31:00,
2013-03-02 05:36:00,25.7,18.3,29.69,WNW,293,4.7,7.2,73,0.00,,,0.00,WUHU216HW,2013-03-02 10:36:00,
2013-03-02 05:41:00,25.7,18.6,29.69,NNW,338,4.5,7.2,74,0.00,,,0.00,WUHU216HW,2013-03-02 10:41:00,
2013-03-02 05:46:00,25.7,18.6,29.69,WNW,293,1.8,5.6,74,0.00,,,0.00,WUHU216HW,2013-03-02 10:46:00,
2013-03-02 05:51:00,25.7,18.6,29.69,East,90,3.4,5.4,74,0.00,,,0.00,WUHU216HW,2013-03-02 10:51:00,
2013-03-02 05:56:00,25.7,18.6,29.69,WNW,293,5.4,5.4,74,0.00,,,0.00,WUHU216HW,2013-03-02 10:56:00,
2013-03-02 06:02:00,25.7,18.6,29.69,West,270,2.7,5.4,74,0.00,,,0.00,WUHU216HW,2013-03-02 11:02:00,
2013-03-02 06:07:00,25.5,18.4,29.69,WNW,293,1.8,5.4,74,0.00,,,0.00,WUHU216HW,2013-03-02 11:07:00,
2013-03-02 06:12:00,25.5,18.4,29.69,West,270,1.8,5.4,74,0.00,,,0.00,WUHU216HW,2013-03-02 11:12:00,
2013-03-02 06:17:00,25.5,18.4,29.69,NNW,338,1.6,3.6,74,0.00,,,0.00,WUHU216HW,2013-03-02 11:17:00,
2013-03-02 06:22:00,25.5,18.4,29.69,WNW,293,1.3,3.6,74,0.00,,,0.00,WUHU216HW,2013-03-02 11:22:00,
2013-03-02 06:27:00,25.5,18.4,29.69,West,270,4.3,4.3,74,0.00,,,0.00,WUHU216HW,2013-03-02 11:27:00,
2013-03-02 06:32:00,25.5,18.4,29.69,WNW,293,2.2,4.3,74,0.00,,,0.00,WUHU216HW,2013-03-02 11:32:00,
2013-03-02 06:37:00,25.5,18.4,29.69,West,270,1.1,3.8,74,0.00,,,0.00,WUHU216HW,2013-03-02 11:37:00,
2013-03-02 06:42:00,25.5,18.4,29.70,WNW,293,1.8,4.9,74,0.00,,,0.00,WUHU216HW,2013-03-02 11:42:00,
2013-03-02 06:47:00,25.5,18.4,29.70,NNW,338,4.0,4.9,74,0.00,,,0.00,WUHU216HW,2013-03-02 11:47:00,
2013-03-02 06:52:00,25.7,18.6,29.69,West,270,2.0,4.3,74,0.00,,,0.00,WUHU216HW,2013-03-02 11:52:00,
2013-03-02 06:57:00,25.7,18.6,29.69,NW,315,2.2,4.3,74,0.00,,,0.00,WUHU216HW,2013-03-02 11:57:00,
2013-03-02 07:02:00,25.7,18.6,29.69,WNW,293,2.7,4.3,74,0.00,,,0.00,WUHU216HW,2013-03-02 12:02:00,
2013-03-02 07:07:00,25.7,18.6,29.70,WNW,293,1.8,4.3,74,0.00,,,0.00,WUHU216HW,2013-03-02 12:07:00,
2013-03-02 07:12:00,25.7,18.6,29.70,WNW,293,3.4,4.0,74,0.00,,,0.00,WUHU216HW,2013-03-02 12:12:00,
2013-03-02 07:18:00,25.7,18.6,29.70,West,270,2.2,5.8,74,0.00,,,0.00,WUHU216HW,2013-03-02 12:18:00,
2013-03-02 07:23:00,25.7,18.6,29.70,NW,315,2.9,5.8,74,0.00,,,0.00,WUHU216HW,2013-03-02 12:23:00,
2013-03-02 07:28:00,25.7,18.6,29.69,WNW,293,1.8,4.7,74,0.00,,,0.00,WUHU216HW,2013-03-02 12:28:00,
2013-03-02 07:33:00,25.9,18.8,29.69,WNW,293,2.9,3.6,74,0.00,,,0.00,WUHU216HW,2013-03-02 12:33:00,
2013-03-02 07:38:00,25.9,18.8,29.70,West,270,4.0,7.4,74,0.00,,,0.00,WUHU216HW,2013-03-02 12:38:00,
2013-03-02 07:43:00,25.9,18.8,29.69,West,270,2.2,7.4,74,0.00,,,0.00,WUHU216HW,2013-03-02 12:43:00,
2013-03-02 07:48:00,26.1,19.0,29.69,WSW,248,4.5,4.9,74,0.00,,,0.00,WUHU216HW,2013-03-02 12:48:00,
2013-03-02 07:53:00,26.1,19.0,29.70,WNW,293,3.6,6.3,74,0.00,,,0.00,WUHU216HW,2013-03-02 12:53:00,
2013-03-02 07:58:00,26.1,19.0,29.70,NW,315,3.4,6.3,74,0.00,,,0.00,WUHU216HW,2013-03-02 12:58:00,
2013-03-02 08:03:00,26.3,19.2,29.70,NNW,338,3.6,5.4,74,0.00,,,0.00,WUHU216HW,2013-03-02 13:03:00,
2013-03-02 08:08:00,26.3,19.2,29.70,West,270,2.2,5.6,74,0.00,,,0.00,WUHU216HW,2013-03-02 13:08:00,
2013-03-02 08:14:00,26.4,19.3,29.70,WNW,293,2.5,5.6,74,0.00,,,0.00,WUHU216HW,2013-03-02 13:14:00,
2013-03-02 08:19:00,26.4,19.3,29.70,West,270,3.4,4.7,74,0.00,,,0.00,WUHU216HW,2013-03-02 13:19:00,
2013-03-02 08:24:00,26.6,19.5,29.70,WNW,293,4.0,5.1,74,0.00,,,0.00,WUHU216HW,2013-03-02 13:24:00,
2013-03-02 08:29:00,26.6,19.5,29.70,NW,315,4.0,7.6,74,0.00,,,0.00,WUHU216HW,2013-03-02 13:29:00,
2013-03-02 08:34:00,26.8,19.7,29.70,WNW,293,0.4,7.6,74,0.00,,,0.00,WUHU216HW,2013-03-02 13:34:00,
2013-03-02 08:39:00,26.8,19.7,29.70,West,270,4.0,6.9,74,0.00,,,0.00,WUHU216HW,2013-03-02 13:39:00,
2013-03-02 08:44:00,27.0,19.9,29.70,WNW,293,3.1,6.9,74,0.00,,,0.00,WUHU216HW,2013-03-02 13:44:00,
2013-03-02 08:49:00,27.0,19.9,29.69,WNW,293,2.7,6.9,74,0.00,,,0.00,WUHU216HW,2013-03-02 13:49:00,
2013-03-02 08:55:00,27.0,19.9,29.70,NW,315,3.4,5.1,74,0.00,,,0.00,WUHU216HW,2013-03-02 13:55:00,
2013-03-02 09:00:00,27.2,20.0,29.70,West,270,4.0,4.9,74,0.00,,,0.00,WUHU216HW,2013-03-02 14:00:00,
2013-03-02 09:05:00,27.2,20.0,29.69,NW,315,5.4,6.3,74,0.00,,,0.00,WUHU216HW,2013-03-02 14:05:00,
2013-03-02 09:10:00,27.3,20.1,29.69,NW,315,2.0,6.3,74,0.00,,,0.00,WUHU216HW,2013-03-02 14:10:00,
2013-03-02 09:15:00,27.3,20.1,29.69,WNW,293,2.5,7.2,74,0.00,,,0.00,WUHU216HW,2013-03-02 14:15:00,
2013-03-02 09:20:00,27.3,20.1,29.69,NW,315,3.8,7.2,74,0.00,,,0.00,WUHU216HW,2013-03-02 14:20:00,
2013-03-02 09:25:00,27.3,20.1,29.69,NW,315,3.4,5.4,74,0.00,,,0.00,WUHU216HW,2013-03-02 14:25:00,
2013-03-02 09:30:00,27.5,20.3,29.69,WNW,293,2.5,4.3,74,0.00,,,0.00,WUHU216HW,2013-03-02 14:30:00,
2013-03-02 09:35:00,27.7,20.5,29.69,NW,315,1.1,4.3,74,0.00,,,0.00,WUHU216HW,2013-03-02 14:35:00,
2013-03-02 09:40:00,27.9,20.7,29.68,West,270,2.5,6.3,74,0.00,,,0.00,WUHU216HW,2013-03-02 14:40:00,
2013-03-02 09:46:00,27.9,20.7,29.68,West,270,2.2,6.3,74,0.00,,,0.00,WUHU216HW,2013-03-02 14:46:00,
2013-03-02 09:51:00,28.1,20.9,29.68,North,0,1.6,6.3,74,0.00,,,0.00,WUHU216HW,2013-03-02 14:51:00,
2013-03-02 09:56:00,28.2,21.0,29.68,WNW,293,2.9,7.2,74,0.00,,,0.00,WUHU216HW,2013-03-02 14:56:00,
2013-03-02 10:01:00,28.2,20.7,29.68,WNW,293,3.1,7.2,73,0.00,,,0.00,WUHU216HW,2013-03-02 15:01:00,
2013-03-02 10:06:00,28.4,20.9,29.68,West,270,3.4,5.1,73,0.00,,,0.00,WUHU216HW,2013-03-02 15:06:00,
2013-03-02 10:11:00,28.6,21.1,29.68,WNW,293,2.9,6.9,73,0.00,,,0.00,WUHU216HW,2013-03-02 15:11:00,
2013-03-02 10:16:00,28.6,21.1,29.68,WNW,293,4.5,6.9,73,0.00,,,0.00,WUHU216HW,2013-03-02 15:16:00,
2013-03-02 10:21:00,28.6,21.1,29.68,West,270,2.7,6.0,73,0.00,,,0.00,WUHU216HW,2013-03-02 15:21:00,
2013-03-02 10:26:00,28.6,21.1,29.68,West,270,2.2,7.8,73,0.00,,,0.00,WUHU216HW,2013-03-02 15:26:00,
2013-03-02 10:32:00,28.8,21.3,29.68,WNW,293,3.8,7.8,73,0.01,,,0.02,WUHU216HW,2013-03-02 15:32:00,
2013-03-02 10:37:00,29.0,21.5,29.67,West,270,4.5,7.8,73,0.01,,,0.02,WUHU216HW,2013-03-02 15:37:00,
2013-03-02 10:42:00,29.1,21.3,29.67,NW,315,4.3,7.8,72,0.01,,,0.02,WUHU216HW,2013-03-02 15:42:00,
2013-03-02 10:47:00,29.3,21.4,29.67,WNW,293,4.3,7.4,72,0.01,,,0.02,WUHU216HW,2013-03-02 15:47:00,
2013-03-02 10:52:00,29.5,21.6,29.67,WNW,293,6.3,7.4,72,0.01,,,0.02,WUHU216HW,2013-03-02 15:52:00,
2013-03-02 10:57:00,29.9,21.7,29.67,WNW,293,4.9,6.9,71,0.01,,,0.02,WUHU216HW,2013-03-02 15:57:00,
2013-03-02 11:02:00,30.0,21.8,29.66,NW,315,4.0,7.2,71,0.01,,,0.02,WUHU216HW,2013-03-02 16:02:00,
2013-03-02 11:07:00,30.0,21.5,29.66,WNW,293,6.5,7.2,70,0.01,,,0.02,WUHU216HW,2013-03-02 16:07:00,
2013-03-02 11:12:00,30.2,21.7,29.67,NNE,23,1.8,6.9,70,0.01,,,0.02,WUHU216HW,2013-03-02 16:12:00,
2013-03-02 11:17:00,30.4,21.8,29.66,West,270,3.4,6.9,70,0.01,,,0.02,WUHU216HW,2013-03-02 16:17:00,
2013-03-02 11:22:00,30.6,22.0,29.66,NW,315,3.6,7.2,70,0.01,,,0.02,WUHU216HW,2013-03-02 16:22:00,
2013-03-02 11:27:00,30.8,22.2,29.66,WNW,293,4.7,7.2,70,0.00,,,0.02,WUHU216HW,2013-03-02 16:27:00,
2013-03-02 11:32:00,30.8,22.2,29.67,NNW,338,1.1,6.3,70,0.00,,,0.02,WUHU216HW,2013-03-02 16:32:00,
2013-03-02 11:37:00,31.1,22.5,29.66,NW,315,4.0,5.4,70,0.00,,,0.02,WUHU216HW,2013-03-02 16:37:00,
2013-03-02 11:43:00,31.3,22.4,29.66,NW,315,2.5,6.3,69,0.00,,,0.02,WUHU216HW,2013-03-02 16:43:00,
2013-03-02 11:48:00,31.5,22.9,29.66,West,270,3.4,6.3,70,0.00,,,0.02,WUHU216HW,2013-03-02 16:48:00,
2013-03-02 11:53:00,31.8,23.2,29.66,NW,315,2.7,6.0,70,0.00,,,0.02,WUHU216HW,2013-03-02 16:53:00,
2013-03-02 11:58:00,31.8,22.9,29.66,NNW,338,3.4,5.6,69,0.00,,,0.02,WUHU216HW,2013-03-02 16:58:00,
2013-03-02 12:03:00,31.8,22.9,29.66,NW,315,2.9,6.3,69,0.00,,,0.02,WUHU216HW,2013-03-02 17:03:00,
2013-03-02 12:08:00,31.8,22.9,29.66,WNW,293,2.2,6.3,69,0.00,,,0.02,WUHU216HW,2013-03-02 17:08:00,
2013-03-02 12:13:00,31.5,22.2,29.66,WNW,293,4.9,6.9,68,0.00,,,0.02,WUHU216HW,2013-03-02 17:13:00,
2013-03-02 12:18:00,31.3,22.0,29.66,WSW,248,4.0,7.8,68,0.00,,,0.02,WUHU216HW,2013-03-02 17:18:00,
2013-03-02 12:23:00,30.9,21.6,29.66,WSW,248,4.0,7.8,68,0.00,,,0.02,WUHU216HW,2013-03-02 17:23:00,
2013-03-02 12:29:00,30.9,21.6,29.66,WNW,293,1.6,4.7,68,0.00,,,0.02,WUHU216HW,2013-03-02 17:29:00,
2013-03-02 12:34:00,30.9,21.6,29.66,West,270,3.6,4.7,68,0.00,,,0.02,WUHU216HW,2013-03-02 17:34:00,
2013-03-02 12:39:00,30.9,21.6,29.66,NW,315,5.6,8.1,68,0.00,,,0.02,WUHU216HW,2013-03-02 17:39:00,
2013-03-02 12:44:00,30.9,21.6,29.66,WNW,293,5.1,8.1,68,0.00,,,0.02,WUHU216HW,2013-03-02 17:44:00,
2013-03-02 12:49:00,30.9,21.6,29.65,SW,225,4.0,6.3,68,0.00,,,0.02,WUHU216HW,2013-03-02 17:49:00,
2013-03-02 12:54:00,30.8,21.2,29.65,West,270,2.2,9.4,67,0.00,,,0.02,WUHU216HW,2013-03-02 17:54:00,
2013-03-02 12:59:00,30.8,21.2,29.65,North,0,3.4,9.4,67,0.00,,,0.02,WUHU216HW,2013-03-02 17:59:00,
2013-03-02 13:04:00,30.9,21.6,29.65,WSW,248,3.8,6.3,68,0.00,,,0.02,WUHU216HW,2013-03-02 18:04:00,
2013-03-02 13:09:00,30.9,21.6,29.65,SW,225,6.3,6.3,68,0.00,,,0.02,WUHU216HW,2013-03-02 18:09:00,
2013-03-02 13:14:00,30.8,21.2,29.65,SW,225,4.5,7.8,67,0.00,,,0.02,WUHU216HW,2013-03-02 18:14:00,
2013-03-02 13:19:00,30.8,21.5,29.64,WNW,293,4.9,7.8,68,0.00,,,0.02,WUHU216HW,2013-03-02 18:19:00,
2013-03-02 13:24:00,30.8,21.5,29.64,WNW,293,3.4,5.4,68,0.00,,,0.02,WUHU216HW,2013-03-02 18:24:00,
2013-03-02 13:29:00,30.9,21.6,29.64,NW,315,1.8,6.5,68,0.00,,,0.02,WUHU216HW,2013-03-02 18:29:00,
2013-03-02 13:35:00,31.1,21.8,29.64,NW,315,4.3,7.2,68,0.00,,,0.02,WUHU216HW,2013-03-02 18:35:00,
2013-03-02 13:40:00,31.1,22.2,29.64,WNW,293,2.0,7.2,69,0.00,,,0.02,WUHU216HW,2013-03-02 18:40:00,
2013-03-02 13:45:00,31.3,22.4,29.64,WSW,248,1.8,6.3,69,0.00,,,0.02,WUHU216HW,2013-03-02 18:45:00,
2013-03-02 13:50:00,31.5,22.6,29.64,West,270,3.1,6.3,69,0.00,,,0.02,WUHU216HW,2013-03-02 18:50:00,
2013-03-02 13:55:00,31.5,22.6,29.63,WNW,293,2.5,6.3,69,0.00,,,0.02,WUHU216HW,2013-03-02 18:55:00,
2013-03-02 14:00:00,31.5,22.2,29.63,West,270,1.6,6.3,68,0.00,,,0.02,WUHU216HW,2013-03-02 19:00:00,
2013-03-02 14:05:00,31.7,22.4,29.63,West,270,2.2,5.4,68,0.00,,,0.02,WUHU216HW,2013-03-02 19:05:00,
2013-03-02 14:10:00,31.7,22.4,29.64,NW,315,3.4,4.5,68,0.00,,,0.02,WUHU216HW,2013-03-02 19:10:00,
2013-03-02 14:15:00,31.5,22.2,29.64,WSW,248,5.4,7.4,68,0.00,,,0.02,WUHU216HW,2013-03-02 19:15:00,
2013-03-02 14:20:00,31.3,22.0,29.63,WNW,293,5.6,7.4,68,0.00,,,0.02,WUHU216HW,2013-03-02 19:20:00,
2013-03-02 14:25:00,30.9,21.6,29.63,West,270,3.1,7.4,68,0.00,,,0.02,WUHU216HW,2013-03-02 19:25:00,
2013-03-02 14:30:00,30.9,21.6,29.63,NW,315,2.9,6.7,68,0.00,,,0.02,WUHU216HW,2013-03-02 19:30:00,
2013-03-02 14:35:00,30.9,21.6,29.63,SW,225,2.5,8.5,68,0.00,,,0.02,WUHU216HW,2013-03-02 19:35:00,
2013-03-02 14:41:00,30.8,21.5,29.63,West,270,1.3,8.5,68,0.00,,,0.02,WUHU216HW,2013-03-02 19:41:00,
2013-03-02 14:46:00,30.8,21.5,29.63,West,270,3.4,6.9,68,0.00,,,0.02,WUHU216HW,2013-03-02 19:46:00,
2013-03-02 14:51:00,30.8,21.5,29.63,WNW,293,3.8,7.6,68,0.00,,,0.02,WUHU216HW,2013-03-02 19:51:00,
2013-03-02 14:56:00,30.8,21.5,29.63,West,270,2.0,7.6,68,0.00,,,0.02,WUHU216HW,2013-03-02 19:56:00,
2013-03-02 15:01:00,30.8,21.5,29.63,NW,315,2.2,5.4,68,0.00,,,0.02,WUHU216HW,2013-03-02 20:01:00,
2013-03-02 15:06:00,30.8,21.5,29.63,West,270,2.0,6.9,68,0.00,,,0.02,WUHU216HW,2013-03-02 20:06:00,
2013-03-02 15:11:00,30.8,21.5,29.63,West,270,4.0,6.9,68,0.00,,,0.02,WUHU216HW,2013-03-02 20:11:00,
2013-03-02 15:16:00,30.8,21.5,29.63,West,270,4.0,6.3,68,0.00,,,0.02,WUHU216HW,2013-03-02 20:16:00,
2013-03-02 15:21:00,30.6,21.4,29.63,NW,315,4.5,5.8,68,0.00,,,0.02,WUHU216HW,2013-03-02 20:21:00,
2013-03-02 15:26:00,30.6,21.4,29.63,NW,315,1.3,6.9,68,0.00,,,0.02,WUHU216HW,2013-03-02 20:26:00,
2013-03-02 15:31:00,30.8,21.5,29.63,WNW,293,3.4,6.9,68,0.00,,,0.02,WUHU216HW,2013-03-02 20:31:00,
2013-03-02 15:36:00,30.8,21.5,29.63,WNW,293,3.4,6.7,68,0.00,,,0.02,WUHU216HW,2013-03-02 20:36:00,
2013-03-02 15:41:00,30.6,21.4,29.63,WNW,293,4.0,6.7,68,0.00,,,0.02,WUHU216HW,2013-03-02 20:41:00,
2013-03-02 15:46:00,30.6,21.4,29.63,NW,315,1.8,5.8,68,0.00,,,0.02,WUHU216HW,2013-03-02 20:46:00,
2013-03-02 15:51:00,30.6,21.4,29.63,NW,315,4.9,5.6,68,0.00,,,0.02,WUHU216HW,2013-03-02 20:51:00,
2013-03-02 15:56:00,30.6,21.4,29.63,NNW,338,1.3,5.6,68,0.00,,,0.02,WUHU216HW,2013-03-02 20:56:00,
2013-03-02 16:01:00,30.6,21.4,29.63,SW,225,4.0,4.5,68,0.00,,,0.02,WUHU216HW,2013-03-02 21:01:00,
2013-03-02 16:06:00,30.6,21.4,29.63,WNW,293,4.5,6.3,68,0.00,,,0.02,WUHU216HW,2013-03-02 21:06:00,
2013-03-02 16:11:00,30.6,21.0,29.63,WSW,248,6.9,7.6,67,0.00,,,0.02,WUHU216HW,2013-03-02 21:11:00,
2013-03-02 16:16:00,30.4,20.8,29.63,NW,315,2.0,9.2,67,0.00,,,0.02,WUHU216HW,2013-03-02 21:16:00,
2013-03-02 16:22:00,30.2,20.6,29.63,WNW,293,7.4,9.2,67,0.00,,,0.02,WUHU216HW,2013-03-02 21:22:00,
2013-03-02 16:27:00,30.0,20.4,29.63,West,270,3.4,7.4,67,0.00,,,0.02,WUHU216HW,2013-03-02 21:27:00,
2013-03-02 16:32:00,30.0,20.8,29.63,WNW,293,3.8,7.4,68,0.00,,,0.02,WUHU216HW,2013-03-02 21:32:00,
2013-03-02 16:37:00,30.0,20.8,29.63,NW,315,3.6,5.8,68,0.00,,,0.02,WUHU216HW,2013-03-02 21:37:00,
2013-03-02 16:42:00,30.0,20.4,29.63,North,0,1.8,6.3,67,0.00,,,0.02,WUHU216HW,2013-03-02 21:42:00,
2013-03-02 16:47:00,30.0,20.4,29.63,WNW,293,2.2,6.3,67,0.00,,,0.02,WUHU216HW,2013-03-02 21:47:00,
2013-03-02 16:52:00,30.0,20.4,29.63,WSW,248,2.2,8.5,67,0.00,,,0.02,WUHU216HW,2013-03-02 21:52:00,
2013-03-02 16:57:00,29.9,20.3,29.63,WNW,293,5.1,8.5,67,0.00,,,0.02,WUHU216HW,2013-03-02 21:57:00,
2013-03-02 17:02:00,29.7,20.1,29.63,West,270,4.0,8.5,67,0.00,,,0.02,WUHU216HW,2013-03-02 22:02:00,
2013-03-02 17:07:00,29.5,20.0,29.63,West,270,4.0,7.8,67,0.00,,,0.02,WUHU216HW,2013-03-02 22:07:00,
2013-03-02 17:12:00,29.5,20.0,29.63,WNW,293,2.5,7.8,67,0.00,,,0.02,WUHU216HW,2013-03-02 22:12:00,
2013-03-02 17:17:00,29.5,20.3,29.64,WSW,248,3.8,6.3,68,0.00,,,0.02,WUHU216HW,2013-03-02 22:17:00,
2013-03-02 17:22:00,29.3,19.8,29.64,WNW,293,6.9,7.6,67,0.00,,,0.02,WUHU216HW,2013-03-02 22:22:00,
2013-03-02 17:27:00,29.3,19.8,29.64,West,270,4.7,8.5,67,0.00,,,0.02,WUHU216HW,2013-03-02 22:27:00,
2013-03-02 17:32:00,29.1,19.6,29.64,WNW,293,6.9,9.8,67,0.00,,,0.02,WUHU216HW,2013-03-02 22:32:00,
2013-03-02 17:37:00,29.1,19.9,29.64,WNW,293,5.8,9.8,68,0.00,,,0.02,WUHU216HW,2013-03-02 22:37:00,
2013-03-02 17:42:00,29.0,19.8,29.64,WNW,293,4.7,7.8,68,0.00,,,0.02,WUHU216HW,2013-03-02 22:42:00,
2013-03-02 17:47:00,28.8,19.6,29.65,WNW,293,6.9,12.1,68,0.00,,,0.02,WUHU216HW,2013-03-02 22:47:00,
2013-03-02 17:52:00,28.6,19.4,29.65,WSW,248,3.4,12.1,68,0.00,,,0.02,WUHU216HW,2013-03-02 22:52:00,
2013-03-02 17:58:00,28.6,19.4,29.65,NNW,338,2.5,6.7,68,0.00,,,0.02,WUHU216HW,2013-03-02 22:58:00,
2013-03-02 18:03:00,28.6,19.4,29.65,WNW,293,2.5,4.3,68,0.00,,,0.02,WUHU216HW,2013-03-02 23:03:00,
2013-03-02 18:08:00,28.6,19.4,29.65,NNW,338,3.4,7.4,68,0.00,,,0.02,WUHU216HW,2013-03-02 23:08:00,
2013-03-02 18:13:00,28.4,19.2,29.65,West,270,4.9,7.4,68,0.00,,,0.02,WUHU216HW,2013-03-02 23:13:00,
2013-03-02 18:18:00,28.4,19.2,29.65,West,270,2.9,7.4,68,0.00,,,0.02,WUHU216HW,2013-03-02 23:18:00,
2013-03-02 18:23:00,28.2,19.1,29.65,SW,225,3.4,7.4,68,0.00,,,0.02,WUHU216HW,2013-03-02 23:23:00,
2013-03-02 18:28:00,28.2,19.1,29.66,NW,315,4.0,4.5,68,0.00,,,0.02,WUHU216HW,2013-03-02 23:28:00,
2013-03-02 18:33:00,28.2,19.1,29.66,West,270,2.2,6.3,68,0.00,,,0.02,WUHU216HW,2013-03-02 23:33:00,
2013-03-02 18:38:00,28.2,19.1,29.66,NW,315,3.6,6.3,68,0.00,,,0.02,WUHU216HW,2013-03-02 23:38:00,
2013-03-02 18:43:00,28.1,19.0,29.66,South,180,2.5,5.4,68,0.00,,,0.02,WUHU216HW,2013-03-02 23:43:00,
2013-03-02 18:48:00,28.1,19.0,29.66,NW,315,1.8,6.0,68,0.00,,,0.02,WUHU216HW,2013-03-02 23:48:00,
2013-03-02 18:53:00,28.1,19.0,29.66,NW,315,4.7,6.0,68,0.00,,,0.02,WUHU216HW,2013-03-02 23:53:00,
2013-03-02 18:58:00,28.1,19.0,29.66,WNW,293,1.8,5.6,68,0.00,,,0.02,WUHU216HW,2013-03-02 23:58:00,
2013-03-02 19:04:00,27.9,18.8,29.66,NNW,338,3.4,7.6,68,0.00,,,0.02,WUHU216HW,2013-03-03 00:04:00,
2013-03-02 19:09:00,27.9,18.8,29.66,West,270,4.3,7.6,68,0.00,,,0.02,WUHU216HW,2013-03-03 00:09:00,
2013-03-02 19:14:00,27.9,19.1,29.67,West,270,1.1,7.4,69,0.00,,,0.02,WUHU216HW,2013-03-03 00:14:00,
2013-03-02 19:19:00,27.7,18.9,29.66,WNW,293,3.4,6.9,69,0.00,,,0.02,WUHU216HW,2013-03-03 00:19:00,
2013-03-02 19:24:00,27.7,18.9,29.66,West,270,2.5,6.0,69,0.00,,,0.02,WUHU216HW,2013-03-03 00:24:00,
2013-03-02 19:29:00,27.5,18.7,29.67,WNW,293,2.5,5.6,69,0.00,,,0.02,WUHU216HW,2013-03-03 00:29:00,
2013-03-02 19:34:00,27.3,18.9,29.66,West,270,6.0,6.0,70,0.00,,,0.02,WUHU216HW,2013-03-03 00:34:00,
2013-03-02 19:39:00,27.2,18.8,29.66,WNW,293,1.8,6.0,70,0.00,,,0.02,WUHU216HW,2013-03-03 00:39:00,
2013-03-02 19:44:00,27.2,18.8,29.67,NW,315,1.8,6.0,70,0.00,,,0.02,WUHU216HW,2013-03-03 00:44:00,
2013-03-02 19:49:00,27.2,18.8,29.67,WNW,293,3.1,6.9,70,0.00,,,0.02,WUHU216HW,2013-03-03 00:49:00,
2013-03-02 19:54:00,27.0,18.9,29.66,North,0,1.1,6.9,71,0.00,,,0.02,WUHU216HW,2013-03-03 00:54:00,
2013-03-02 19:59:00,26.8,18.7,29.67,NW,315,5.4,5.4,71,0.00,,,0.02,WUHU216HW,2013-03-03 00:59:00,
2013-03-02 20:04:00,26.6,18.8,29.66,WNW,293,1.8,5.4,72,0.00,,,0.02,WUHU216HW,2013-03-03 01:04:00,
2013-03-02 20:09:00,26.4,18.6,29.67,WNW,293,2.2,4.9,72,0.00,,,0.02,WUHU216HW,2013-03-03 01:09:00,
2013-03-02 20:15:00,26.4,19.0,29.67,NW,315,3.4,4.9,73,0.00,,,0.02,WUHU216HW,2013-03-03 01:15:00,
2013-03-02 20:20:00,26.1,18.7,29.67,North,0,2.7,5.1,73,0.00,,,0.02,WUHU216HW,2013-03-03 01:20:00,
2013-03-02 20:25:00,25.9,18.5,29.67,WSW,248,1.8,6.9,73,0.00,,,0.02,WUHU216HW,2013-03-03 01:25:00,
2013-03-02 20:30:00,25.7,18.6,29.67,WSW,248,4.3,7.6,74,0.00,,,0.02,WUHU216HW,2013-03-03 01:30:00,
2013-03-02 20:35:00,25.7,18.6,29.67,WNW,293,3.1,8.1,74,0.00,,,0.02,WUHU216HW,2013-03-03 01:35:00,
2013-03-02 20:40:00,25.4,18.3,29.67,NW,315,2.2,8.1,74,0.00,,,0.02,WUHU216HW,2013-03-03 01:40:00,
2013-03-02 20:45:00,25.2,18.4,29.67,WNW,293,6.0,6.0,75,0.00,,,0.02,WUHU216HW,2013-03-03 01:45:00,
2013-03-02 20:50:00,25.2,18.4,29.67,WNW,293,3.4,6.0,75,0.00,,,0.02,WUHU216HW,2013-03-03 01:50:00,
2013-03-02 20:55:00,25.0,18.2,29.67,NW,315,3.1,6.0,75,0.00,,,0.02,WUHU216HW,2013-03-03 01:55:00,
2013-03-02 21:00:00,25.0,18.2,29.67,WNW,293,3.8,4.9,75,0.00,,,0.02,WUHU216HW,2013-03-03 02:00:00,
2013-03-02 21:05:00,25.0,18.5,29.66,WNW,293,3.8,4.9,76,0.00,,,0.02,WUHU216HW,2013-03-03 02:05:00,
2013-03-02 21:10:00,24.8,18.3,29.66,WNW,293,4.5,4.9,76,0.00,,,0.02,WUHU216HW,2013-03-03 02:10:00,
2013-03-02 21:15:00,24.8,18.3,29.66,NW,315,4.5,7.4,76,0.00,,,0.02,WUHU216HW,2013-03-03 02:15:00,
2013-03-02 21:20:00,24.6,18.1,29.66,WNW,293,2.7,8.1,76,0.00,,,0.02,WUHU216HW,2013-03-03 02:20:00,
2013-03-02 21:25:00,24.6,18.1,29.66,NW,315,4.5,8.1,76,0.00,,,0.02,WUHU216HW,2013-03-03 02:25:00,
2013-03-02 21:31:00,24.6,17.8,29.66,West,270,5.4,5.6,75,0.00,,,0.02,WUHU216HW,2013-03-03 02:31:00,
2013-03-02 21:36:00,24.6,17.8,29.66,WNW,293,3.4,5.6,75,0.00,,,0.02,WUHU216HW,2013-03-03 02:36:00,
2013-03-02 21:41:00,24.6,17.8,29.66,WNW,293,4.5,5.4,75,0.00,,,0.02,WUHU216HW,2013-03-03 02:41:00,
2013-03-02 21:46:00,24.6,17.8,29.66,West,270,2.2,6.9,75,0.00,,,0.02,WUHU216HW,2013-03-03 02:46:00,
2013-03-02 21:51:00,24.5,17.7,29.66,NW,315,4.3,6.9,75,0.00,,,0.02,WUHU216HW,2013-03-03 02:51:00,
2013-03-02 21:56:00,24.5,17.7,29.66,WSW,248,0.9,4.9,75,0.00,,,0.02,WUHU216HW,2013-03-03 02:56:00,
2013-03-02 22:01:00,24.5,17.7,29.66,WNW,293,3.4,4.9,75,0.00,,,0.02,WUHU216HW,2013-03-03 03:01:00,
2013-03-02 22:06:00,24.5,17.7,29.66,NNW,338,4.0,5.4,75,0.00,,,0.02,WUHU216HW,2013-03-03 03:06:00,
2013-03-02 22:11:00,24.5,17.7,29.66,NW,315,6.3,6.3,75,0.00,,,0.02,WUHU216HW,2013-03-03 03:11:00,
2013-03-02 22:16:00,24.3,17.2,29.66,WNW,293,2.5,6.3,74,0.00,,,0.02,WUHU216HW,2013-03-03 03:16:00,
2013-03-02 22:21:00,24.3,17.2,29.66,WNW,293,1.8,4.9,74,0.00,,,0.02,WUHU216HW,2013-03-03 03:21:00,
2013-03-02 22:27:00,24.3,17.2,29.66,West,270,5.4,6.3,74,0.00,,,0.02,WUHU216HW,2013-03-03 03:27:00,
2013-03-02 22:32:00,24.3,17.2,29.66,NW,315,6.3,7.6,74,0.00,,,0.02,WUHU216HW,2013-03-03 03:32:00,
2013-03-02 22:37:00,24.3,17.2,29.66,NNW,338,5.1,7.6,74,0.00,,,0.02,WUHU216HW,2013-03-03 03:37:00,
2013-03-02 22:42:00,24.3,17.2,29.66,WSW,248,2.2,7.6,74,0.00,,,0.02,WUHU216HW,2013-03-03 03:42:00,
2013-03-02 22:47:00,24.3,17.2,29.66,NW,315,3.6,6.3,74,0.00,,,0.02,WUHU216HW,2013-03-03 03:47:00,
2013-03-02 22:52:00,24.3,17.2,29.66,NW,315,5.1,6.3,74,0.00,,,0.02,WUHU216HW,2013-03-03 03:52:00,
2013-03-02 22:57:00,24.3,17.2,29.66,WNW,293,2.5,6.3,74,0.00,,,0.02,WUHU216HW,2013-03-03 03:57:00,
2013-03-02 23:02:00,24.3,17.2,29.66,West,270,7.8,7.8,74,0.00,,,0.02,WUHU216HW,2013-03-03 04:02:00,
2013-03-02 23:07:00,24.3,17.2,29.66,NNW,338,2.2,7.8,74,0.00,,,0.02,WUHU216HW,2013-03-03 04:07:00,
2013-03-02 23:12:00,24.3,17.2,29.66,NW,315,3.8,7.8,74,0.00,,,0.02,WUHU216HW,2013-03-03 04:12:00,
2013-03-02 23:17:00,24.3,17.2,29.66,SW,225,3.1,7.2,74,0.00,,,0.02,WUHU216HW,2013-03-03 04:17:00,
2013-03-02 23:22:00,24.3,17.2,29.66,WNW,293,4.0,7.2,74,0.00,,,0.02,WUHU216HW,2013-03-03 04:22:00,
2013-03-02 23:27:00,24.3,17.2,29.66,NW,315,3.6,7.2,74,0.00,,,0.02,WUHU216HW,2013-03-03 04:27:00,